This is the latest recevied weather packets stored in our database for station/object SP2WPY-13. If no packets are shown the sender has not sent any weather packets the latest 10 day(s).
| Time | Temp. | Humidity | Pressure | Rain* | Wind** | Luminosity | Snow |
|---|---|---|---|---|---|---|---|
| 1787927709 | 22.78° C | 46% | 1018 hPa | - | - | - | - |
| 1787927434 | 22.22° C | 47% | 1018 hPa | - | - | - | - |
| 1787927114 | 22.22° C | 47% | 1018.1 hPa | - | - | - | - |
| 1787926842 | 22.22° C | 47% | 1018.1 hPa | - | - | - | - |
| 1787926520 | 22.22° C | 47% | 1018.3 hPa | - | - | - | - |
| 1787926201 | 22.22° C | 47% | 1018.2 hPa | - | - | - | - |
| 1787925927 | 22.22° C | 46% | 1018 hPa | - | - | - | - |
| 1787925608 | 22.22° C | 46% | 1017.9 hPa | - | - | - | - |
| 1787925333 | 22.22° C | 47% | 1017.8 hPa | - | - | - | - |
| 1787925013 | 22.22° C | 46% | 1017.8 hPa | - | - | - | - |
| 1787924739 | 22.78° C | 46% | 1017.7 hPa | - | - | - | - |
| 1787924420 | 22.78° C | 45% | 1017.8 hPa | - | - | - | - |
| 1787924146 | 22.78° C | 45% | 1018.1 hPa | - | - | - | - |
| 1787923825 | 22.78° C | 45% | 1018.2 hPa | - | - | - | - |
| 1787923504 | 22.78° C | 44% | 1018.1 hPa | - | - | - | - |
| 1787923231 | 22.78° C | 44% | 1018 hPa | - | - | - | - |
| 1787922912 | 23.33° C | 44% | 1018.1 hPa | - | - | - | - |
| 1787922638 | 22.78° C | 44% | 1018.2 hPa | - | - | - | - |
| 1787922316 | 22.78° C | 44% | 1018.1 hPa | - | - | - | - |
| 1787922040 | 23.33° C | 43% | 1018.3 hPa | - | - | - | - |
| 1787921720 | 23.33° C | 42% | 1018.4 hPa | - | - | - | - |
| 1787921445 | 23.33° C | 42% | 1018.5 hPa | - | - | - | - |
| 1787921125 | 23.89° C | 40% | 1018.6 hPa | - | - | - | - |
| 1787920805 | 23.89° C | 40% | 1018.6 hPa | - | - | - | - |
| 1787920532 | 24.44° C | 39% | 1018.6 hPa | - | - | - | - |
* Rain since midnight (hover to see other rain measurements)
** Current wind speed in m/s (hover to see current wind gust speed)